User: anonymous   Login
Location: Unspecified
(0.0000°N, 0.0000°E)
Time: 19:37:48
(UTC+02:00)
Language:

Gbstr 26 Del rocket - Orbit

View from above orbital plane
View from above orbital plane
View from above satellite
View from above satellite

Ground track
Ground track

The orbit data is extracted from the following two-line orbital elements,

1 25876U 99041E   15109.18299236  .00002262  00000-0  42954-3 0  9996
2 25876 051.7672 192.0385 0535856 246.7593 107.6062 14.03122647803658
Epoch (UTC): 19 April 2015 04:23:30
Eccentricity: 0.0535856
inclination: 51.7672°
perigee height: 494 km
apogee height: 1272 km
right ascension of ascending node: 192.0385°
argument of perigee: 246.7593°
revolutions per day: 14.03122647
mean anomaly at epoch: 107.6062°
orbit number at epoch: 80365

The dashed part of the orbit path shows where the satellite is in the earth's shadow,  

DLR